Regional Weather Roundup
Issued by NWS Albany, NY

Current Version | Previous Version | Text Only | Print | Product List | Glossary On
Versions: 1 2 3 4 5 6 7 8 9 10 11 12 13 14 15 16 17 18 19 20 21 22 23 24 25 26 27
000 ASUS41 KALY 231410 RWRALY NEW YORK STATE HOURLY WEATHER ROUNDUP NATIONAL WEATHER SERVICE ALBANY NY 1000 AM EDT THU OCT 23 2014 NOTE: "FAIR" INDICATES FEW OR NO CLOUDS BELOW 12,000 FEET WITH NO SIGNIFICANT WEATHER AND/OR NO OBSTRUCTIONS TO VISIBILITY. NYZ032-033-038>043-046>054-057>066-NYZ062>081-231500- EAST CITY SKY/WX TMP DP RH WIND PRES REMARKS ALBANY LGT RAIN 47 43 86 N9 29.86S GLENS FALLS CLOUDY 48 41 76 N15 29.87S POUGHKEEPSIE LGT RAIN 49 44 83 N14G22 29.75F NEWBURGH LGT RAIN 48 46 93 N17G35 29.76S FOG MONTGOMERY LGT RAIN 49 46 90 N6 29.76R WHITE PLAINS PTSUNNY 49 45 86 N21G29 29.67S ISLIP LGT RAIN 53 49 86 N17G26 29.63R NEW YORK CITY CLOUDY 52 46 80 N15G23 29.70S CENTRAL PARK CLOUDY 50 47 89 N9 29.73S $$ NYZ005>009-017-018-044>046-055-056-231500- CENTRAL CITY SKY/WX TMP DP RH WIND PRES REMARKS FULTON SUNNY 50 37 61 N17G25 30.00F SYRACUSE CLOUDY 47 38 71 NW10G20 29.99F ROME CLOUDY 45 38 76 NW14G22 29.95S ELMIRA CLOUDY 50 42 74 N12G22 29.98R BINGHAMTON CLOUDY 42 39 89 N18G24 29.90S MONTICELLO CLOUDY 45 43 93 N13 29.80S $$ NYZ026>034-041>043-231500- NORTH CITY SKY/WX TMP DP RH WIND PRES REMARKS WATERTOWN SUNNY 50 34 54 NE20G28 30.02F FORT DRUM NOT AVBL MASSENA CLOUDY 48 36 63 NE17G25 30.08S SARANAC LAKE CLOUDY 39 36 89 NE14 29.97S WCI 31 PLATTSBURGH LGT RAIN 43 40 89 N18G25 30.01S FOG $$ NYZ001>004-010>016-019>021-231500- WEST CITY SKY/WX TMP DP RH WIND PRES REMARKS NIAGARA FALLS SUNNY 49 41 74 NW12 30.13F BUFFALO MOSUNNY 49 41 74 N8 30.13S DUNKIRK SUNNY 51 40 65 N10 30.14F JAMESTOWN PTSUNNY 45 39 81 N13 30.11F WELLSVILLE CLOUDY 42 38 85 N15G24 30.06R ROCHESTER PTSUNNY 50 39 66 N13 30.10R PENN YAN CLOUDY 47 40 76 NW13G24 30.02F $$ KEY WCI = WIND CHILL INDEX VSB = VISIBILITY HX = HEAT INDEX $$

USA.gov is the U.S. government's official web portal to all federal, state and local government web resources and services.